M I D A S
Marine Information and Data Acquisition System
Tripno 426 of the Zeeleeuw from 2003-02-07 07:51:14 to 2003-02-07 13:05:54
Back to CruiseResearch ActivitiesStationsMapUnderway DataData graphs

EquipmentUnitsComments
TimeDGPSUTC
LatitudeDGPSDM.mWGS84
LongitudeDGPSDM.mWGS84
SpeedMeteo Stationm/sRelative wind speed
DirectionMeteo StationdegRelative wind direction
TemperatureMeteo Stationdeg CelciusAir temperature
PressureMeteo StationPaAtmospheric pressure
HumidityMeteo Station%Relative humidity
Missing or incorrect values are displayed as -999
Metereological data collected by the RV Zeeleeuw from 2003-02-07 07:51:14 to 2003-02-07 13:05:54
                                                                                    Next 1000 lines
Time Latitude Longitude Speed Direction Temperature Pressure Humidity
2003-02-07 07:51:21 51°13.627 2°56.028 3.2 94 5.3 101850 94
2003-02-07 07:51:26 51°13.629 2°56.021 3.3 92 5.3 101850 94
2003-02-07 07:51:31 51°13.631 2°56.014 3.1 101 5.3 101850 94
2003-02-07 07:51:36 51°13.633 2°56.006 2.6 92 5.3 101850 94
2003-02-07 07:51:41 51°13.635 2°55.998 2.2 84 5.3 101850 94
2003-02-07 07:51:46 51°13.637 2°55.989 2.7 80 5.3 101850 94
2003-02-07 07:51:51 51°13.639 2°55.98 2.4 75 5.3 101850 94
2003-02-07 07:51:56 51°13.641 2°55.971 2.9 63 5.3 101850 94
2003-02-07 07:52:01 51°13.642 2°55.962 3.1 54 5.3 101850 94
2003-02-07 07:52:06 51°13.644 2°55.953 3.1 82 5.3 101850 94
2003-02-07 07:52:11 51°13.645 2°55.945 3.3 88 5.3 101850 94
2003-02-07 07:52:16 51°13.647 2°55.937 2.6 84 5.3 101850 94
2003-02-07 07:52:21 51°13.648 2°55.929 2.5 80 5.3 101850 94
2003-02-07 07:52:25 51°13.649 2°55.924 2.9 61 5.3 101850 94
2003-02-07 07:52:31 51°13.651 2°55.916 2.8 73 5.3 101860 94
2003-02-07 07:52:36 51°13.652 2°55.91 1.6 93 5.3 101860 94
2003-02-07 07:52:41 51°13.653 2°55.904 1.3 70 5.3 101860 94
2003-02-07 07:52:46 51°13.655 2°55.898 2.4 72 5.3 101860 94
2003-02-07 07:52:51 51°13.656 2°55.892 2.7 75 5.3 101850 94
2003-02-07 07:52:56 51°13.657 2°55.885 2.2 91 5.3 101850 94
2003-02-07 07:53:01 51°13.658 2°55.879 2.4 96 5.3 101860 94
2003-02-07 07:53:06 51°13.659 2°55.873 2.9 72 5.3 101860 94
2003-02-07 07:53:11 51°13.661 2°55.866 2.8 97 5.3 101860 94
2003-02-07 07:53:16 51°13.662 2°55.86 3.2 94 5.3 101860 94
2003-02-07 07:53:20 51°13.663 2°55.854 3.1 89 5.3 101850 94
2003-02-07 07:53:25 51°13.664 2°55.847 2.9 71 5.3 101850 94
2003-02-07 07:53:31 51°13.666 2°55.839 3.1 77 5.3 101850 94
2003-02-07 07:53:36 51°13.667 2°55.832 3.3 77 5.3 101850 94
2003-02-07 07:53:41 51°13.668 2°55.825 3.5 84 5.3 101860 94
2003-02-07 07:53:46 51°13.669 2°55.818 4.2 101 5.3 101860 94
2003-02-07 07:53:51 51°13.67 2°55.811 3.8 103 5.3 101850 94
2003-02-07 07:53:56 51°13.671 2°55.805 3.5 95 5.3 101850 94
2003-02-07 07:54:01 51°13.672 2°55.798 4.3 88 5.3 101850 94
2003-02-07 07:54:06 51°13.673 2°55.791 4 101 5.3 101850 94
2003-02-07 07:54:10 51°13.673 2°55.786 4.9 94 5.3 101850 94
2003-02-07 07:54:16 51°13.674 2°55.778 3.6 89 5.3 101850 94
2003-02-07 07:54:21 51°13.674 2°55.772 2.9 91 5.3 101850 94
2003-02-07 07:54:25 51°13.675 2°55.767 3.4 81 5.3 101850 94
2003-02-07 07:54:31 51°13.675 2°55.761 3.5 77 5.3 101850 94
2003-02-07 07:54:36 51°13.675 2°55.756 2.4 87 5.3 101850 94
2003-02-07 07:54:41 51°13.675 2°55.753 2.3 87 5.3 101850 94
2003-02-07 07:54:46 51°13.675 2°55.75 2.1 81 5.3 101850 94
2003-02-07 07:54:51 51°13.675 2°55.749 2.8 102 5.3 101850 94
2003-02-07 07:54:56 51°13.676 2°55.748 1.3 145 5.3 101850 94
2003-02-07 07:55:00 51°13.676 2°55.748 1.3 148 5.3 101850 94
2003-02-07 07:55:05 51°13.677 2°55.748 1.8 60 5.3 101850 94
2003-02-07 07:55:10 51°13.677 2°55.748 1.8 95 5.3 101860 94
2003-02-07 07:55:15 51°13.678 2°55.749 2.5 88 5.3 101860 94
2003-02-07 07:55:21 51°13.68 2°55.75 2.9 49 5.3 101860 94
2003-02-07 07:55:26 51°13.681 2°55.751 1 112 5.3 101860 94
2003-02-07 07:55:31 51°13.683 2°55.752 1.3 72 5.3 101860 94
2003-02-07 07:55:36 51°13.684 2°55.752 1.7 40 5.3 101860 94
2003-02-07 07:55:41 51°13.687 2°55.753 0.9 40 5.3 101860 94
2003-02-07 07:55:46 51°13.689 2°55.754 1.3 40 5.3 101860 94
2003-02-07 07:55:51 51°13.691 2°55.754 2.2 27 5.3 101850 94
2003-02-07 07:55:56 51°13.694 2°55.754 1.2 338 5.3 101850 94
2003-02-07 07:56:01 51°13.697 2°55.753 1.3 354 5.3 101860 94
2003-02-07 07:56:06 51°13.7 2°55.752 1 346 5.3 101860 94
2003-02-07 07:56:11 51°13.704 2°55.751 1.1 348 5.3 101850 94
2003-02-07 07:56:16 51°13.707 2°55.749 1.7 16 5.3 101850 94
2003-02-07 07:56:21 51°13.711 2°55.746 1.9 338 5.3 101860 94
2003-02-07 07:56:25 51°13.714 2°55.744 2 347 5.3 101860 94
2003-02-07 07:56:31 51°13.719 2°55.739 1.7 333 5.3 101860 94
2003-02-07 07:56:36 51°13.723 2°55.735 1.1 246 5.3 101860 94
2003-02-07 07:56:40 51°13.726 2°55.731 1.9 240 5.4 101860 94
2003-02-07 07:56:45 51°13.73 2°55.726 2.5 242 5.4 101860 94
2003-02-07 07:56:50 51°13.735 2°55.72 2.1 258 5.4 101860 94
2003-02-07 07:56:55 51°13.739 2°55.715 2.3 274 5.4 101860 94
2003-02-07 07:57:00 51°13.744 2°55.71 3 281 5.4 101850 94
2003-02-07 07:57:05 51°13.749 2°55.704 2.9 318 5.4 101850 94
2003-02-07 07:57:10 51°13.755 2°55.698 1.8 325 5.4 101860 94
2003-02-07 07:57:15 51°13.76 2°55.692 1 343 5.4 101860 94
2003-02-07 07:57:19 51°13.765 2°55.688 1.2 304 5.4 101860 94
2003-02-07 07:57:25 51°13.772 2°55.68 1 346 5.4 101860 94
2003-02-07 07:57:30 51°13.778 2°55.674 1.3 349 5.4 101860 94
2003-02-07 07:57:35 51°13.784 2°55.668 0.7 351 5.4 101860 94
2003-02-07 07:57:40 51°13.791 2°55.662 0.5 355 5.4 101860 94
2003-02-07 07:57:44 51°13.796 2°55.658 0.2 3 5.4 101860 94
2003-02-07 07:57:49 51°13.803 2°55.652 0.2 2 5.4 101860 94
2003-02-07 07:57:55 51°13.811 2°55.646 0.7 195 5.4 101860 94
2003-02-07 07:58:00 51°13.818 2°55.64 0.8 213 5.4 101860 94
2003-02-07 07:58:04 51°13.823 2°55.636 1.2 219 5.4 101860 94
2003-02-07 07:58:10 51°13.832 2°55.629 1.1 219 5.4 101860 94
2003-02-07 07:58:15 51°13.839 2°55.624 2.3 328 5.4 101860 94
2003-02-07 07:58:20 51°13.847 2°55.619 2.4 286 5.4 101860 94
2003-02-07 07:58:24 51°13.853 2°55.615 1.8 260 5.4 101860 94
2003-02-07 07:58:30 51°13.862 2°55.609 1.9 264 5.4 101860 94
2003-02-07 07:58:35 51°13.87 2°55.604 2.4 285 5.4 101860 94
2003-02-07 07:58:40 51°13.877 2°55.598 2.1 271 5.4 101860 94
2003-02-07 07:58:45 51°13.885 2°55.593 3.9 259 5.4 101860 94
2003-02-07 07:58:48 51°13.89 2°55.59 3.6 267 5.4 101860 94
2003-02-07 07:58:55 51°13.901 2°55.582 3 270 5.4 101860 94
2003-02-07 07:59:00 51°13.908 2°55.576 3.9 271 5.4 101860 94
2003-02-07 07:59:05 51°13.916 2°55.571 2.8 290 5.4 101860 94
2003-02-07 07:59:10 51°13.924 2°55.565 2.8 265 5.4 101860 94
2003-02-07 07:59:13 51°13.929 2°55.562 3.3 281 5.4 101860 94
2003-02-07 07:59:20 51°13.94 2°55.554 3.5 239 5.4 101860 94
2003-02-07 07:59:25 51°13.948 2°55.549 2.6 267 5.4 101860 94
2003-02-07 07:59:29 51°13.954 2°55.544 2.9 280 5.4 101860 94
2003-02-07 07:59:35 51°13.964 2°55.538 2.3 281 5.4 101860 94
2003-02-07 07:59:40 51°13.971 2°55.532 2.2 303 5.4 101860 94
2003-02-07 07:59:45 51°13.979 2°55.527 2.9 273 5.4 101860 94
2003-02-07 07:59:50 51°13.987 2°55.521 2.6 253 5.5 101860 94
2003-02-07 07:59:55 51°13.995 2°55.515 2.7 272 5.5 101860 94
2003-02-07 08:00:00 51°14.003 2°55.509 3.2 282 5.5 101860 94
2003-02-07 08:00:05 51°14.011 2°55.504 3.1 298 5.5 101860 94
2003-02-07 08:00:10 51°14.019 2°55.498 3.1 302 5.5 101860 94
2003-02-07 08:00:15 51°14.027 2°55.492 3.6 289 5.5 101860 94
2003-02-07 08:00:20 51°14.035 2°55.486 2.7 282 5.5 101860 94
2003-02-07 08:00:25 51°14.043 2°55.48 3.2 265 5.5 101860 94
2003-02-07 08:00:30 51°14.051 2°55.474 3.2 264 5.5 101860 94
2003-02-07 08:00:35 51°14.059 2°55.469 2.9 266 5.5 101860 94
2003-02-07 08:00:40 51°14.067 2°55.462 2.8 257 5.5 101860 94
2003-02-07 08:00:44 51°14.073 2°55.458 2.6 273 5.5 101860 94
2003-02-07 08:00:50 51°14.083 2°55.45 2.4 269 5.5 101860 94
2003-02-07 08:00:55 51°14.091 2°55.444 2.7 251 5.5 101860 94
2003-02-07 08:01:00 51°14.099 2°55.438 4.4 275 5.5 101860 94
2003-02-07 08:01:05 51°14.107 2°55.432 3.7 281 5.5 101860 94
2003-02-07 08:01:10 51°14.115 2°55.425 3.9 282 5.5 101860 94
2003-02-07 08:01:15 51°14.123 2°55.419 3.4 265 5.5 101860 94
2003-02-07 08:01:20 51°14.131 2°55.412 3.1 250 5.5 101860 94
2003-02-07 08:01:25 51°14.139 2°55.405 3.3 279 5.5 101860 94
2003-02-07 08:01:28 51°14.144 2°55.401 3.3 274 5.5 101860 94
2003-02-07 08:01:35 51°14.154 2°55.39 3.7 264 5.5 101860 94
2003-02-07 08:01:40 51°14.162 2°55.383 4.6 276 5.5 101860 94
2003-02-07 08:01:45 51°14.169 2°55.375 3.5 277 5.5 101860 94
2003-02-07 08:01:50 51°14.176 2°55.367 2.5 255 5.5 101860 94
2003-02-07 08:01:55 51°14.184 2°55.359 2.5 241 5.5 101860 94
2003-02-07 08:02:01 51°14.193 2°55.349 2.3 244 5.5 101860 94
2003-02-07 08:02:05 51°14.199 2°55.342 2.6 235 5.5 101860 94
2003-02-07 08:02:10 51°14.206 2°55.334 2.6 263 5.5 101860 94
2003-02-07 08:02:16 51°14.214 2°55.324 4.9 275 5.5 101860 94
2003-02-07 08:02:20 51°14.22 2°55.317 4.9 266 5.5 101860 94
2003-02-07 08:02:25 51°14.227 2°55.308 7.1 280 5.5 101860 94
2003-02-07 08:02:30 51°14.234 2°55.298 6.4 293 5.5 101860 94
2003-02-07 08:02:35 51°14.241 2°55.289 5.8 291 5.5 101860 94
2003-02-07 08:02:40 51°14.247 2°55.279 5.8 298 5.6 101860 94
2003-02-07 08:02:45 51°14.254 2°55.269 4.5 271 5.6 101860 94
2003-02-07 08:02:48 51°14.258 2°55.263 5 280 5.6 101860 94
2003-02-07 08:02:55 51°14.267 2°55.248 5.4 276 5.6 101860 94
2003-02-07 08:03:01 51°14.274 2°55.236 6.3 287 5.6 101860 94
2003-02-07 08:03:05 51°14.278 2°55.227 7.4 273 5.6 101860 94
2003-02-07 08:03:11 51°14.286 2°55.214 5.7 290 5.6 101860 95
2003-02-07 08:03:15 51°14.29 2°55.205 6.6 293 5.6 101860 95
2003-02-07 08:03:20 51°14.296 2°55.194 7.6 292 5.7 101860 95
2003-02-07 08:03:25 51°14.301 2°55.183 8.3 294 5.7 101860 95
2003-02-07 08:03:30 51°14.307 2°55.172 7 290 5.7 101850 94
2003-02-07 08:03:35 51°14.312 2°55.16 8.5 291 5.7 101850 94
2003-02-07 08:03:40 51°14.318 2°55.148 6.8 287 5.7 101860 95
2003-02-07 08:03:45 51°14.323 2°55.136 7.3 282 5.7 101860 95
2003-02-07 08:03:48 51°14.326 2°55.129 6.3 284 5.7 101860 95
2003-02-07 08:03:55 51°14.334 2°55.112 6.3 286 5.7 101860 95
2003-02-07 08:04:00 51°14.34 2°55.1 3.8 263 5.8 101860 95
2003-02-07 08:04:05 51°14.345 2°55.087 6 289 5.8 101860 95
2003-02-07 08:04:10 51°14.35 2°55.075 7 283 5.7 101860 95
2003-02-07 08:04:15 51°14.356 2°55.062 6.8 278 5.7 101860 95
2003-02-07 08:04:19 51°14.36 2°55.051 6.9 282 5.7 101860 95
2003-02-07 08:04:24 51°14.366 2°55.037 7.3 284 5.7 101860 95
2003-02-07 08:04:29 51°14.371 2°55.023 7.7 280 5.7 101860 95
2003-02-07 08:04:35 51°14.377 2°55.006 8.3 277 5.7 101860 95
2003-02-07 08:04:39 51°14.38 2°54.993 8.5 271 5.7 101860 95
2003-02-07 08:04:45 51°14.384 2°54.975 8.9 272 5.7 101860 95
2003-02-07 08:04:49 51°14.386 2°54.962 8.5 273 5.7 101850 95
2003-02-07 08:04:55 51°14.388 2°54.942 9.3 271 5.7 101850 95
2003-02-07 08:05:00 51°14.389 2°54.926 9.1 269 5.7 101850 95
2003-02-07 08:05:05 51°14.391 2°54.909 9.1 265 5.7 101850 95
2003-02-07 08:05:09 51°14.391 2°54.895 8.7 267 5.7 101850 95
2003-02-07 08:05:14 51°14.392 2°54.878 9.1 268 5.7 101850 95
2003-02-07 08:05:20 51°14.394 2°54.857 9.1 268 5.7 101850 95
2003-02-07 08:05:25 51°14.395 2°54.84 9.3 266 5.7 101850 95
2003-02-07 08:05:30 51°14.396 2°54.822 10.3 263 5.7 101850 95
2003-02-07 08:05:35 51°14.397 2°54.804 9.7 264 5.7 101850 95
2003-02-07 08:05:39 51°14.397 2°54.79 9.2 267 5.7 101850 95
2003-02-07 08:05:44 51°14.398 2°54.772 8.9 268 5.7 101850 95
2003-02-07 08:05:49 51°14.399 2°54.754 8.9 272 5.7 101850 95
2003-02-07 08:05:55 51°14.4 2°54.732 8.7 266 5.7 101850 95
2003-02-07 08:05:59 51°14.401 2°54.718 8.3 348 5.7 101850 95
2003-02-07 08:06:04 51°14.401 2°54.701 8.9 265 5.7 101850 95
2003-02-07 08:06:09 51°14.402 2°54.685 9 266 5.7 101850 95
2003-02-07 08:06:14 51°14.402 2°54.669 8.3 263 5.7 101850 95
2003-02-07 08:06:19 51°14.401 2°54.655 9.1 261 5.7 101850 95
2003-02-07 08:06:25 51°14.4 2°54.638 9 258 5.7 101850 95
2003-02-07 08:06:29 51°14.399 2°54.627 8.4 257 5.7 101850 95
2003-02-07 08:06:35 51°14.398 2°54.612 8.6 254 5.7 101850 95
2003-02-07 08:06:40 51°14.396 2°54.599 8.6 256 5.7 101840 94
2003-02-07 08:06:45 51°14.394 2°54.588 8 255 5.7 101840 94
2003-02-07 08:06:49 51°14.393 2°54.579 7.9 251 5.7 101850 95
2003-02-07 08:06:54 51°14.391 2°54.568 7.2 251 5.7 101850 95
2003-02-07 08:06:58 51°14.39 2°54.559 7.7 250 5.7 101850 95
2003-02-07 08:07:05 51°14.387 2°54.545 7.5 250 5.7 101850 95
2003-02-07 08:07:09 51°14.385 2°54.538 6.7 251 5.7 101850 95
2003-02-07 08:07:15 51°14.382 2°54.526 7.6 250 5.7 101850 95
2003-02-07 08:07:20 51°14.38 2°54.518 7.5 250 5.7 101840 95
2003-02-07 08:07:24 51°14.378 2°54.511 7.5 247 5.7 101840 95
2003-02-07 08:07:30 51°14.375 2°54.501 7.6 249 5.7 101840 95
2003-02-07 08:07:35 51°14.373 2°54.493 7.2 248 5.7 101840 95
2003-02-07 08:07:38 51°14.371 2°54.488 7.1 244 5.7 101850 95
2003-02-07 08:07:45 51°14.368 2°54.477 6.8 248 5.7 101850 95
2003-02-07 08:07:49 51°14.366 2°54.472 6.4 247 5.7 101850 95
2003-02-07 08:07:55 51°14.363 2°54.463 6.2 248 5.7 101850 95
2003-02-07 08:08:00 51°14.36 2°54.457 6.7 242 5.7 101850 95
2003-02-07 08:08:05 51°14.358 2°54.45 6.7 244 5.7 101850 95
2003-02-07 08:08:09 51°14.356 2°54.445 6.7 247 5.7 101850 95
2003-02-07 08:08:14 51°14.354 2°54.438 6.9 249 5.7 101850 95
2003-02-07 08:08:20 51°14.351 2°54.431 6.8 243 5.7 101850 95
2003-02-07 08:08:25 51°14.349 2°54.425 6.1 243 5.7 101850 95
2003-02-07 08:08:29 51°14.347 2°54.42 6.4 244 5.7 101850 95
2003-02-07 08:08:34 51°14.345 2°54.414 6.4 245 5.7 101850 95
2003-02-07 08:08:40 51°14.343 2°54.407 6.6 245 5.7 101850 95
2003-02-07 08:08:44 51°14.341 2°54.403 6.4 245 5.7 101850 95
2003-02-07 08:08:50 51°14.339 2°54.396 5.6 248 5.7 101850 95
2003-02-07 08:08:55 51°14.337 2°54.391 5.7 247 5.7 101850 95
2003-02-07 08:08:59 51°14.335 2°54.387 6 247 5.7 101850 95
2003-02-07 08:09:05 51°14.333 2°54.38 6.3 248 5.7 101850 95
2003-02-07 08:09:10 51°14.331 2°54.375 6.2 245 5.7 101860 95
2003-02-07 08:09:14 51°14.33 2°54.371 6.1 247 5.7 101860 95
2003-02-07 08:09:20 51°14.328 2°54.365 6 251 5.7 101860 95
2003-02-07 08:09:25 51°14.326 2°54.36 6.3 246 5.7 101860 95
2003-02-07 08:09:28 51°14.325 2°54.357 6.1 253 5.7 101860 95
2003-02-07 08:09:34 51°14.323 2°54.351 5.7 252 5.7 101860 95
2003-02-07 08:09:40 51°14.321 2°54.345 5.3 251 5.7 101860 95
2003-02-07 08:09:45 51°14.32 2°54.34 5.9 251 5.7 101860 95
2003-02-07 08:09:50 51°14.318 2°54.335 6.1 252 5.7 101860 95
2003-02-07 08:09:55 51°14.317 2°54.33 6.4 254 5.7 101860 95
2003-02-07 08:09:59 51°14.316 2°54.327 6.1 255 5.7 101860 95
2003-02-07 08:10:05 51°14.314 2°54.321 6.5 256 5.7 101860 95
2003-02-07 08:10:09 51°14.313 2°54.317 7 256 5.7 101860 95
2003-02-07 08:10:15 51°14.311 2°54.312 5.7 260 5.7 101860 95
2003-02-07 08:10:20 51°14.31 2°54.308 6.3 257 5.7 101860 95
2003-02-07 08:10:25 51°14.309 2°54.303 6.1 258 5.7 101860 95
2003-02-07 08:10:30 51°14.308 2°54.299 6.3 260 5.7 101860 95
2003-02-07 08:10:35 51°14.306 2°54.293 6.5 257 5.7 101860 95
2003-02-07 08:10:38 51°14.305 2°54.289 6.7 254 5.7 101860 95
2003-02-07 08:10:45 51°14.302 2°54.278 8 256 5.7 101860 95
2003-02-07 08:10:50 51°14.299 2°54.267 7.3 251 5.7 101860 95
2003-02-07 08:10:54 51°14.296 2°54.257 8.6 248 5.7 101860 95
2003-02-07 08:11:00 51°14.291 2°54.239 9.3 249 5.7 101860 95
2003-02-07 08:11:05 51°14.286 2°54.223 10.6 250 5.7 101860 95
2003-02-07 08:11:08 51°14.283 2°54.212 9.8 245 5.7 101860 95
2003-02-07 08:11:15 51°14.276 2°54.184 11.2 249 5.7 101860 95
2003-02-07 08:11:19 51°14.272 2°54.167 10.9 249 5.7 101850 95
2003-02-07 08:11:25 51°14.265 2°54.14 11.1 248 5.7 101850 95
2003-02-07 08:11:30 51°14.26 2°54.117 10.8 249 5.7 101850 95
2003-02-07 08:11:35 51°14.254 2°54.093 10.9 251 5.7 101850 95
2003-02-07 08:11:40 51°14.249 2°54.068 10.7 251 5.7 101850 95
2003-02-07 08:11:45 51°14.244 2°54.042 11.8 251 5.7 101850 95
2003-02-07 08:11:49 51°14.24 2°54.021 12 252 5.7 101840 95
2003-02-07 08:11:55 51°14.234 2°53.99 11 252 5.7 101840 95
2003-02-07 08:12:00 51°14.229 2°53.963 10.9 251 5.7 101830 95
2003-02-07 08:12:05 51°14.223 2°53.936 12.1 249 5.7 101830 95
2003-02-07 08:12:08 51°14.219 2°53.92 11.4 248 5.7 101840 95
2003-02-07 08:12:13 51°14.213 2°53.893 12.6 247 5.7 101840 95
2003-02-07 08:12:19 51°14.205 2°53.861 12.1 248 5.7 101850 95
2003-02-07 08:12:25 51°14.196 2°53.829 11.6 247 5.7 101850 95
2003-02-07 08:12:29 51°14.19 2°53.808 11.9 245 5.7 101840 94
2003-02-07 08:12:35 51°14.181 2°53.776 12.4 246 5.7 101840 94
2003-02-07 08:12:40 51°14.172 2°53.75 11.9 243 5.7 101830 95
2003-02-07 08:12:44 51°14.165 2°53.73 11.5 245 5.7 101830 95
2003-02-07 08:12:49 51°14.156 2°53.704 12.3 243 5.7 101840 95
2003-02-07 08:12:55 51°14.145 2°53.674 11.7 242 5.7 101840 95
2003-02-07 08:13:00 51°14.135 2°53.649 12.6 244 5.7 101840 95
2003-02-07 08:13:04 51°14.127 2°53.63 11.9 243 5.7 101840 95
2003-02-07 08:13:10 51°14.115 2°53.6 11.5 243 5.7 101830 95
2003-02-07 08:13:15 51°14.104 2°53.577 11.7 240 5.7 101830 95
2003-02-07 08:13:19 51°14.096 2°53.557 11.9 244 5.7 101840 95
2003-02-07 08:13:25 51°14.084 2°53.528 11.6 241 5.7 101840 95
2003-02-07 08:13:28 51°14.078 2°53.513 12.4 241 5.7 101840 94
2003-02-07 08:13:35 51°14.064 2°53.479 11.5 242 5.7 101840 94
2003-02-07 08:13:40 51°14.054 2°53.454 11.7 242 5.7 101850 94
2003-02-07 08:13:45 51°14.044 2°53.429 11.9 242 5.7 101850 94
2003-02-07 08:13:50 51°14.034 2°53.405 11.6 241 5.6 101850 95
2003-02-07 08:13:55 51°14.024 2°53.38 12.2 239 5.6 101850 95
2003-02-07 08:14:00 51°14.014 2°53.355 11.5 239 5.6 101850 94
2003-02-07 08:14:04 51°14.006 2°53.335 11.8 241 5.6 101850 94
2003-02-07 08:14:10 51°13.994 2°53.306 12.1 242 5.6 101840 95
2003-02-07 08:14:15 51°13.984 2°53.281 11.1 243 5.6 101840 95
2003-02-07 08:14:19 51°13.976 2°53.261 11.2 242 5.6 101850 94
2003-02-07 08:14:25 51°13.965 2°53.231 11.7 244 5.6 101850 94
2003-02-07 08:14:29 51°13.957 2°53.211 11.5 243 5.6 101850 95
2003-02-07 08:14:35 51°13.945 2°53.181 11.3 242 5.6 101850 95
2003-02-07 08:14:39 51°13.937 2°53.161 11.1 239 5.6 101850 94
2003-02-07 08:14:45 51°13.926 2°53.131 10.8 243 5.6 101850 94
2003-02-07 08:14:49 51°13.919 2°53.11 10.4 242 5.6 101860 94
2003-02-07 08:14:55 51°13.908 2°53.079 11.2 241 5.6 101860 94
2003-02-07 08:15:00 51°13.9 2°53.053 10.1 242 5.6 101850 95
2003-02-07 08:15:04 51°13.893 2°53.031 10.5 243 5.6 101850 95
2003-02-07 08:15:09 51°13.885 2°53.005 10.5 243 5.6 101840 94
2003-02-07 08:15:13 51°13.879 2°52.983 10.1 243 5.6 101840 94
2003-02-07 08:15:17 51°13.873 2°52.962 10.1 240 5.6 101850 94
2003-02-07 08:15:24 51°13.862 2°52.924 10.9 242 5.6 101850 94
2003-02-07 08:15:29 51°13.854 2°52.897 11 239 5.6 101860 94
2003-02-07 08:15:35 51°13.845 2°52.864 10.8 243 5.6 101860 94
2003-02-07 08:15:40 51°13.837 2°52.837 11.2 241 5.6 101870 94
2003-02-07 08:15:45 51°13.83 2°52.81 9.6 239 5.6 101870 94
2003-02-07 08:15:50 51°13.822 2°52.784 10.5 242 5.6 101860 94
2003-02-07 08:15:54 51°13.815 2°52.762 10.7 242 5.6 101860 94
2003-02-07 08:16:00 51°13.806 2°52.73 10.7 241 5.6 101860 94
2003-02-07 08:16:05 51°13.798 2°52.704 10.6 240 5.6 101860 94
2003-02-07 08:16:10 51°13.789 2°52.677 11.2 244 5.6 101860 94
2003-02-07 08:16:15 51°13.781 2°52.651 11.4 242 5.6 101860 94
2003-02-07 08:16:20 51°13.773 2°52.625 11 241 5.5 101870 94
2003-02-07 08:16:25 51°13.764 2°52.599 10.7 239 5.5 101870 94
2003-02-07 08:16:28 51°13.759 2°52.583 10.7 239 5.6 101870 94
2003-02-07 08:16:35 51°13.746 2°52.547 11.1 237 5.6 101870 94
2003-02-07 08:16:39 51°13.739 2°52.527 10.9 236 5.6 101870 94
2003-02-07 08:16:45 51°13.728 2°52.496 11.6 236 5.6 101870 94
2003-02-07 08:16:48 51°13.722 2°52.481 11.6 238 5.6 101870 94
2003-02-07 08:16:55 51°13.709 2°52.446 12 237 5.6 101870 94
2003-02-07 08:16:59 51°13.701 2°52.427 11.3 240 5.6 101870 94
2003-02-07 08:17:05 51°13.689 2°52.397 11 239 5.6 101870 94
2003-02-07 08:17:10 51°13.679 2°52.372 11.6 238 5.5 101870 94
2003-02-07 08:17:14 51°13.671 2°52.352 10.7 239 5.5 101870 94
2003-02-07 08:17:20 51°13.659 2°52.323 11.2 237 5.5 101860 94
2003-02-07 08:17:25 51°13.649 2°52.298 10.8 238 5.5 101860 94
2003-02-07 08:17:28 51°13.643 2°52.283 11.5 238 5.6 101870 94
2003-02-07 08:17:35 51°13.629 2°52.248 11.9 238 5.6 101870 94
2003-02-07 08:17:39 51°13.621 2°52.228 11.1 238 5.5 101850 94
2003-02-07 08:17:45 51°13.61 2°52.198 10.7 241 5.5 101850 94
2003-02-07 08:17:50 51°13.601 2°52.173 10.4 237 5.5 101870 94
2003-02-07 08:17:55 51°13.592 2°52.147 10.4 238 5.5 101870 94
2003-02-07 08:18:00 51°13.583 2°52.121 10.8 240 5.5 101870 94
2003-02-07 08:18:05 51°13.574 2°52.095 10.7 238 5.5 101870 94
2003-02-07 08:18:10 51°13.566 2°52.069 10.7 241 5.5 101870 94
2003-02-07 08:18:15 51°13.558 2°52.042 10.6 238 5.5 101870 94
2003-02-07 08:18:19 51°13.552 2°52.021 10 239 5.6 101870 95
2003-02-07 08:18:25 51°13.543 2°51.989 11 241 5.6 101870 95
2003-02-07 08:18:28 51°13.538 2°51.973 10.3 239 5.5 101870 94
2003-02-07 08:18:34 51°13.529 2°51.941 10.3 237 5.5 101870 94
2003-02-07 08:18:40 51°13.52 2°51.909 10.4 241 5.6 101870 94
2003-02-07 08:18:44 51°13.514 2°51.887 10.9 238 5.6 101870 94
2003-02-07 08:18:48 51°13.507 2°51.866 11 241 5.6 101860 95
2003-02-07 08:18:55 51°13.496 2°51.829 10.5 238 5.6 101860 95
2003-02-07 08:18:59 51°13.489 2°51.808 11.4 239 5.5 101870 95
2003-02-07 08:19:05 51°13.479 2°51.777 12 236 5.5 101870 95
2003-02-07 08:19:10 51°13.47 2°51.751 12.4 235 5.5 101880 95
2003-02-07 08:19:15 51°13.461 2°51.726 12.2 237 5.5 101880 95
2003-02-07 08:19:19 51°13.454 2°51.705 12.6 237 5.5 101870 94
2003-02-07 08:19:24 51°13.445 2°51.679 12.5 236 5.5 101870 94
2003-02-07 08:19:28 51°13.438 2°51.659 12.4 236 5.5 101870 94
2003-02-07 08:19:35 51°13.425 2°51.623 12.8 236 5.5 101870 94
2003-02-07 08:19:40 51°13.416 2°51.597 11.7 235 5.6 101870 94
2003-02-07 08:19:45 51°13.407 2°51.572 12.8 240 5.6 101870 94
2003-02-07 08:19:49 51°13.4 2°51.551 12.1 239 5.6 101860 95
2003-02-07 08:19:54 51°13.39 2°51.526 13.1 235 5.6 101860 95
2003-02-07 08:20:00 51°13.379 2°51.496 11.9 234 5.6 101860 95
2003-02-07 08:20:05 51°13.368 2°51.473 11.8 230 5.6 101860 95
2003-02-07 08:20:08 51°13.361 2°51.46 12.9 234 5.6 101870 95
2003-02-07 08:20:15 51°13.344 2°51.43 12.7 231 5.6 101870 95
2003-02-07 08:20:20 51°13.334 2°51.406 12.8 236 5.6 101870 94
2003-02-07 08:20:25 51°13.324 2°51.382 12.5 236 5.6 101870 94
2003-02-07 08:20:30 51°13.314 2°51.357 12.4 238 5.6 101870 95
2003-02-07 08:20:34 51°13.306 2°51.337 11.8 232 5.6 101870 95
2003-02-07 08:20:40 51°13.296 2°51.307 12.5 235 5.7 101870 95
2003-02-07 08:20:45 51°13.286 2°51.282 12.9 237 5.7 101870 95
2003-02-07 08:20:50 51°13.276 2°51.257 11.8 236 5.7 101870 95
2003-02-07 08:20:55 51°13.267 2°51.231 11.7 235 5.7 101870 95
2003-02-07 08:20:58 51°13.261 2°51.216 11.9 238 5.7 101870 95
2003-02-07 08:21:04 51°13.25 2°51.186 12.9 235 5.7 101870 95
2003-02-07 08:21:08 51°13.242 2°51.166 12.9 236 5.7 101870 95
2003-02-07 08:21:15 51°13.229 2°51.131 13.2 237 5.7 101870 95
2003-02-07 08:21:19 51°13.221 2°51.111 13 234 5.7 101870 95
2003-02-07 08:21:25 51°13.209 2°51.081 12.7 237 5.7 101870 95
2003-02-07 08:21:30 51°13.2 2°51.055 12.1 237 5.7 101870 95
2003-02-07 08:21:35 51°13.19 2°51.03 12.4 236 5.7 101870 95
2003-02-07 08:21:40 51°13.181 2°51.005 12.5 234 5.7 101870 95
2003-02-07 08:21:45 51°13.171 2°50.98 11.6 237 5.7 101870 95
2003-02-07 08:21:49 51°13.163 2°50.96 12.5 235 5.8 101880 95
2003-02-07 08:21:55 51°13.152 2°50.93 11.8 235 5.8 101880 95
2003-02-07 08:21:59 51°13.144 2°50.91 11.7 233 5.8 101880 95
2003-02-07 08:22:05 51°13.133 2°50.879 11.9 236 5.8 101880 95
2003-02-07 08:22:10 51°13.123 2°50.854 12.6 236 5.8 101870 95
2003-02-07 08:22:15 51°13.114 2°50.829 13.3 236 5.8 101870 95
2003-02-07 08:22:19 51°13.106 2°50.808 13.1 236 5.8 101870 95
2003-02-07 08:22:25 51°13.095 2°50.778 12 232 5.8 101870 95
2003-02-07 08:22:28 51°13.089 2°50.763 12.5 235 5.8 101870 95
2003-02-07 08:22:34 51°13.078 2°50.733 12.9 236 5.8 101870 95
2003-02-07 08:22:37 51°13.072 2°50.718 13.2 236 5.8 101880 95
2003-02-07 08:22:45 51°13.057 2°50.677 12.7 235 5.8 101880 95
2003-02-07 08:22:48 51°13.051 2°50.662 12.9 235 5.8 101880 95
2003-02-07 08:22:54 51°13.04 2°50.632 12.9 235 5.8 101880 95
2003-02-07 08:22:59 51°13.03 2°50.606 14 237 5.8 101860 95
2003-02-07 08:23:05 51°13.018 2°50.576 13.5 237 5.8 101860 95
2003-02-07 08:23:09 51°13.011 2°50.556 13.8 237 5.8 101880 95
2003-02-07 08:23:15 51°13 2°50.525 12.5 233 5.8 101880 95
2003-02-07 08:23:20 51°12.99 2°50.5 12.8 235 5.8 101880 95
2003-02-07 08:23:25 51°12.981 2°50.475 12.2 236 5.8 101880 95
2003-02-07 08:23:29 51°12.973 2°50.454 13 237 5.8 101870 95
2003-02-07 08:23:35 51°12.962 2°50.424 13 236 5.8 101870 95
2003-02-07 08:23:40 51°12.952 2°50.399 13.1 234 5.8 101870 95
2003-02-07 08:23:44 51°12.945 2°50.379 13.3 236 5.8 101870 95
2003-02-07 08:23:49 51°12.935 2°50.353 12.9 236 5.8 101870 95
2003-02-07 08:23:55 51°12.924 2°50.323 12.9 236 5.8 101870 95
2003-02-07 08:24:00 51°12.914 2°50.298 11.7 234 5.9 101880 95
2003-02-07 08:24:04 51°12.906 2°50.278 13.3 233 5.9 101880 95
2003-02-07 08:24:10 51°12.895 2°50.247 12.4 234 5.9 101870 95
2003-02-07 08:24:15 51°12.885 2°50.222 12.1 235 5.9 101870 95
2003-02-07 08:24:19 51°12.878 2°50.202 11.6 236 5.9 101880 95
2003-02-07 08:24:25 51°12.866 2°50.171 11.9 237 5.9 101880 95
2003-02-07 08:24:29 51°12.859 2°50.151 12.3 232 5.9 101870 95
2003-02-07 08:24:35 51°12.848 2°50.12 12.1 235 5.9 101870 95
2003-02-07 08:24:40 51°12.838 2°50.095 12.8 236 5.9 101870 95
2003-02-07 08:24:45 51°12.829 2°50.07 12.3 236 5.9 101870 95
2003-02-07 08:24:50 51°12.819 2°50.044 12.9 235 5.9 101870 95
2003-02-07 08:24:55 51°12.81 2°50.019 12 235 5.9 101870 95
2003-02-07 08:24:58 51°12.804 2°50.004 11.9 236 5.9 101880 95
2003-02-07 08:25:05 51°12.79 2°49.968 12.1 235 5.9 101880 95
2003-02-07 08:25:10 51°12.781 2°49.942 12.7 236 5.9 101880 95
2003-02-07 08:25:15 51°12.771 2°49.917 11.3 237 5.9 101880 95
2003-02-07 08:25:20 51°12.762 2°49.892 11.1 237 5.9 101880 95
2003-02-07 08:25:24 51°12.754 2°49.871 12.4 235 5.9 101880 95
2003-02-07 08:25:28 51°12.747 2°49.851 12.9 236 5.9 101880 95
2003-02-07 08:25:35 51°12.733 2°49.815 12.2 233 5.9 101880 95
2003-02-07 08:25:39 51°12.726 2°49.795 12.7 231 5.9 101880 95
2003-02-07 08:25:45 51°12.715 2°49.765 12.9 235 5.9 101880 95
2003-02-07 08:25:48 51°12.709 2°49.75 12.7 237 5.9 101880 95
2003-02-07 08:25:55 51°12.696 2°49.714 13.1 233 5.9 101880 95
2003-02-07 08:25:59 51°12.689 2°49.694 11.2 237 5.9 101880 95
2003-02-07 08:26:05 51°12.677 2°49.663 12.9 232 5.9 101880 95
2003-02-07 08:26:10 51°12.668 2°49.638 12.9 234 5.9 101880 95
2003-02-07 08:26:14 51°12.66 2°49.617 12.8 233 5.9 101880 95
2003-02-07 08:26:20 51°12.649 2°49.587 11.8 234 5.9 101880 95
2003-02-07 08:26:25 51°12.639 2°49.561 11.2 236 5.9 101880 95
2003-02-07 08:26:28 51°12.633 2°49.546 11.9 233 5.9 101870 95
2003-02-07 08:26:35 51°12.62 2°49.51 12.4 235 5.9 101870 95
2003-02-07 08:26:40 51°12.611 2°49.485 11 231 5.9 101880 95
2003-02-07 08:26:45 51°12.601 2°49.46 12 234 5.9 101880 95
2003-02-07 08:26:49 51°12.594 2°49.439 11.8 235 5.9 101890 95
2003-02-07 08:26:55 51°12.583 2°49.408 11.7 233 5.9 101890 95
2003-02-07 08:27:00 51°12.573 2°49.383 11.9 234 5.9 101880 95
2003-02-07 08:27:05 51°12.564 2°49.357 11.5 236 5.9 101880 95
2003-02-07 08:27:09 51°12.556 2°49.337 11.4 234 5.9 101890 95
2003-02-07 08:27:15 51°12.545 2°49.307 11.6 236 5.9 101890 95
2003-02-07 08:27:19 51°12.537 2°49.286 10.9 237 5.9 101890 95
2003-02-07 08:27:25 51°12.526 2°49.255 11.1 236 5.9 101890 95
2003-02-07 08:27:28 51°12.521 2°49.24 11.8 236 5.9 101890 95
2003-02-07 08:27:35 51°12.507 2°49.204 11.2 235 5.9 101890 95
2003-02-07 08:27:40 51°12.498 2°49.179 12.1 236 5.8 101890 95
2003-02-07 08:27:45 51°12.488 2°49.154 12.4 234 5.8 101890 95
2003-02-07 08:27:48 51°12.483 2°49.138 12.7 235 5.8 101890 95
2003-02-07 08:27:55 51°12.47 2°49.103 12.3 238 5.8 101890 95
2003-02-07 08:28:00 51°12.46 2°49.077 13.1 234 5.8 101880 95
2003-02-07 08:28:05 51°12.451 2°49.052 13.2 233 5.8 101880 95
2003-02-07 08:28:09 51°12.443 2°49.032 13 235 5.8 101890 95
2003-02-07 08:28:15 51°12.432 2°49.001 13 235 5.8 101890 95
2003-02-07 08:28:20 51°12.423 2°48.976 13 236 5.8 101890 95
2003-02-07 08:28:25 51°12.413 2°48.951 12.6 236 5.8 101890 95
2003-02-07 08:28:29 51°12.405 2°48.93 13 236 5.8 101890 95
2003-02-07 08:28:34 51°12.396 2°48.905 12.5 235 5.8 101890 95
2003-02-07 08:28:40 51°12.386 2°48.874 13.2 235 5.9 101890 95
2003-02-07 08:28:44 51°12.378 2°48.854 12.5 232 5.9 101890 95
2003-02-07 08:28:50 51°12.368 2°48.823 12.8 236 5.8 101880 95
2003-02-07 08:28:55 51°12.359 2°48.798 13.4 236 5.8 101880 95
2003-02-07 08:29:00 51°12.35 2°48.772 12.8 235 5.9 101890 95
2003-02-07 08:29:04 51°12.343 2°48.751 13.7 234 5.9 101890 95
2003-02-07 08:29:09 51°12.334 2°48.726 13.8 235 5.9 101880 95
2003-02-07 08:29:15 51°12.323 2°48.695 14.1 233 5.9 101880 95
2003-02-07 08:29:19 51°12.316 2°48.674 14.1 234 5.9 101890 95
2003-02-07 08:29:24 51°12.307 2°48.649 14.2 234 5.9 101890 95
2003-02-07 08:29:29 51°12.298 2°48.623 13.3 231 5.9 101880 95
2003-02-07 08:29:35 51°12.287 2°48.593 14.3 234 5.9 101880 95
2003-02-07 08:29:40 51°12.278 2°48.567 12.7 234 5.9 101890 95
2003-02-07 08:29:45 51°12.269 2°48.541 13.6 236 5.9 101890 95
2003-02-07 08:29:50 51°12.26 2°48.516 13.4 232 5.9 101880 95
2003-02-07 08:29:55 51°12.251 2°48.49 13.4 232 5.9 101880 95
2003-02-07 08:30:00 51°12.241 2°48.465 12.9 234 5.9 101880 95
2003-02-07 08:30:05 51°12.232 2°48.439 13.1 234 5.9 101880 95
2003-02-07 08:30:10 51°12.222 2°48.413 12.9 235 6 101880 95
2003-02-07 08:30:15 51°12.213 2°48.387 12.7 235 6 101880 95
2003-02-07 08:30:20 51°12.205 2°48.361 13.6 233 6 101890 95
2003-02-07 08:30:25 51°12.196 2°48.335 12.1 233 6 101890 95
2003-02-07 08:30:28 51°12.191 2°48.319 12.3 235 6 101890 95
2003-02-07 08:30:34 51°12.181 2°48.288 13.4 235 6 101890 95
2003-02-07 08:30:40 51°12.171 2°48.256 12.1 235 6 101900 95
2003-02-07 08:30:44 51°12.164 2°48.235 12.5 233 6 101900 95
2003-02-07 08:30:48 51°12.158 2°48.214 12.6 236 6 101890 95
2003-02-07 08:30:54 51°12.147 2°48.183 12.3 232 6 101890 95
2003-02-07 08:31:00 51°12.137 2°48.151 13.7 233 6 101890 95
2003-02-07 08:31:05 51°12.129 2°48.125 13.6 235 6 101890 95
2003-02-07 08:31:10 51°12.12 2°48.099 12 234 6 101890 95
2003-02-07 08:31:15 51°12.111 2°48.073 12.6 234 6 101890 95
2003-02-07 08:31:20 51°12.103 2°48.047 12.6 235 6 101890 95
2003-02-07 08:31:25 51°12.094 2°48.021 13.1 235 6 101890 95
2003-02-07 08:31:29 51°12.087 2°48 14 235 6 101890 95
2003-02-07 08:31:35 51°12.077 2°47.969 12.3 235 6 101890 95
2003-02-07 08:31:40 51°12.068 2°47.943 12.9 238 6.1 101890 95
2003-02-07 08:31:44 51°12.061 2°47.922 13.1 236 6.1 101890 95
2003-02-07 08:31:49 51°12.053 2°47.896 12.4 236 6 101890 95
2003-02-07 08:31:55 51°12.042 2°47.865 13.3 236 6 101890 95
2003-02-07 08:32:00 51°12.033 2°47.839 13 238 6 101880 95
2003-02-07 08:32:03 51°12.028 2°47.823 13 236 6 101880 95
2003-02-07 08:32:09 51°12.018 2°47.792 13.3 237 6 101890 95
2003-02-07 08:32:15 51°12.008 2°47.76 13.6 237 6 101890 95
2003-02-07 08:32:19 51°12.002 2°47.739 12 237 6.1 101890 95
2003-02-07 08:32:25 51°11.991 2°47.708 13.9 237 6.1 101890 95
2003-02-07 08:32:30 51°11.983 2°47.681 13.6 237 6 101890 95
2003-02-07 08:32:35 51°11.974 2°47.655 12.9 235 6 101890 95
2003-02-07 08:32:40 51°11.966 2°47.629 12.8 237 6 101880 95
2003-02-07 08:32:45 51°11.957 2°47.603 12.4 236 6 101880 95
2003-02-07 08:32:49 51°11.95 2°47.582 12.8 238 6.1 101890 95
2003-02-07 08:32:55 51°11.94 2°47.55 13.1 238 6.1 101890 95
2003-02-07 08:32:59 51°11.933 2°47.529 13 238 6.1 101880 95
2003-02-07 08:33:05 51°11.923 2°47.498 13.3 235 6.1 101880 95
2003-02-07 08:33:10 51°11.914 2°47.472 12.6 240 6.1 101880 95
2003-02-07 08:33:14 51°11.907 2°47.451 12.8 240 6.1 101880 95
2003-02-07 08:33:19 51°11.898 2°47.425 12.5 238 6.1 101880 95
2003-02-07 08:33:25 51°11.888 2°47.394 13.8 240 6.1 101880 95
2003-02-07 08:33:28 51°11.883 2°47.378 13 239 6.1 101890 95
2003-02-07 08:33:35 51°11.872 2°47.34 12.9 240 6.1 101890 95
2003-02-07 08:33:40 51°11.865 2°47.313 13 240 6.1 101880 95
2003-02-07 08:33:45 51°11.858 2°47.286 13.4 240 6.1 101880 95
2003-02-07 08:33:49 51°11.852 2°47.264 13 241 6.1 101880 95
2003-02-07 08:33:55 51°11.844 2°47.231 13.9 238 6.1 101880 95
2003-02-07 08:33:59 51°11.838 2°47.209 13.5 240 6.1 101870 95
2003-02-07 08:34:05 51°11.83 2°47.176 13.8 238 6.1 101870 95
2003-02-07 08:34:10 51°11.823 2°47.149 13.4 238 6.1 101880 95
2003-02-07 08:34:14 51°11.817 2°47.127 13.5 239 6.1 101880 95
2003-02-07 08:34:20 51°11.808 2°47.094 13.6 237 6.1 101880 95
2003-02-07 08:34:25 51°11.801 2°47.066 13.1 239 6.1 101880 95
2003-02-07 08:34:30 51°11.794 2°47.039 13.3 239 6.1 101880 95
2003-02-07 08:34:34 51°11.788 2°47.017 12.4 239 6.1 101880 95
2003-02-07 08:34:40 51°11.78 2°46.984 12.6 239 6.1 101880 95
2003-02-07 08:34:45 51°11.772 2°46.956 13 238 6.1 101880 95
2003-02-07 08:34:48 51°11.768 2°46.94 13.2 239 6.1 101880 95
2003-02-07 08:34:55 51°11.758 2°46.901 12.6 240 6.1 101880 95
2003-02-07 08:34:59 51°11.752 2°46.879 13.5 240 6.1 101880 95
2003-02-07 08:35:05 51°11.744 2°46.846 14.1 240 6.1 101880 95
2003-02-07 08:35:09 51°11.738 2°46.824 13.2 239 6.1 101880 95
2003-02-07 08:35:15 51°11.729 2°46.791 12.6 240 6.1 101880 95
2003-02-07 08:35:20 51°11.722 2°46.764 13.4 241 6.1 101880 95
2003-02-07 08:35:25 51°11.715 2°46.737 12.8 241 6.1 101880 95
2003-02-07 08:35:30 51°11.708 2°46.709 12.8 241 6.1 101870 95
2003-02-07 08:35:35 51°11.701 2°46.682 12.6 241 6.1 101870 95
2003-02-07 08:35:38 51°11.697 2°46.665 12.3 240 6.1 101890 95
2003-02-07 08:35:45 51°11.687 2°46.626 13.1 239 6.1 101890 95
2003-02-07 08:35:50 51°11.68 2°46.599 13.2 241 6.1 101880 95
2003-02-07 08:35:55 51°11.673 2°46.572 12.6 241 6.1 101880 95
2003-02-07 08:36:00 51°11.666 2°46.544 13.3 240 6.1 101880 95
2003-02-07 08:36:05 51°11.658 2°46.517 12.3 241 6.1 101880 95
2003-02-07 08:36:10 51°11.651 2°46.489 13.6 241 6.1 101880 95
2003-02-07 08:36:15 51°11.644 2°46.461 13.3 240 6.1 101880 95
2003-02-07 08:36:19 51°11.638 2°46.44 12 238 6.1 101880 95
2003-02-07 08:36:25 51°11.629 2°46.407 13.1 241 6.1 101880 95
2003-02-07 08:36:29 51°11.624 2°46.385 13.1 240 6 101880 95
2003-02-07 08:36:35 51°11.615 2°46.351 12.3 240 6 101880 95
2003-02-07 08:36:40 51°11.608 2°46.324 12.8 239 6 101880 95
2003-02-07 08:36:45 51°11.601 2°46.296 12.3 239 6 101880 95
2003-02-07 08:36:49 51°11.595 2°46.274 12.4 240 6 101880 95
2003-02-07 08:36:54 51°11.588 2°46.247 13.4 239 6 101880 95
2003-02-07 08:37:00 51°11.579 2°46.214 13.3 239 6 101890 95
2003-02-07 08:37:04 51°11.573 2°46.192 12.4 240 6 101890 95
2003-02-07 08:37:09 51°11.566 2°46.164 12.4 239 6 101880 95
2003-02-07 08:37:14 51°11.559 2°46.137 12.2 239 6 101880 95
2003-02-07 08:37:20 51°11.55 2°46.103 12.8 238 6 101890 95
2003-02-07 08:37:25 51°11.543 2°46.076 12.6 239 6 101890 95
2003-02-07 08:37:29 51°11.537 2°46.054 12.4 239 6 101890 95
2003-02-07 08:37:35 51°11.528 2°46.021 12.6 239 6 101890 95
2003-02-07 08:37:40 51°11.521 2°45.993 12.3 239 6 101880 95
2003-02-07 08:37:44 51°11.515 2°45.971 12.3 240 6 101880 95
2003-02-07 08:37:49 51°11.508 2°45.943 12.6 239 6 101880 95
2003-02-07 08:37:55 51°11.499 2°45.91 12.3 238 6 101880 95
2003-02-07 08:38:00 51°11.492 2°45.883 11.8 239 6 101900 95
2003-02-07 08:38:05 51°11.485 2°45.855 12.7 238 6 101900 95
2003-02-07 08:38:09 51°11.479 2°45.833 11.9 239 6 101880 95
2003-02-07 08:38:11 51°11.476 2°45.822 11.8 239 6 101880 95
2003-02-07 08:38:18 51°11.466 2°45.783 11.7 240 6 101890 95
2003-02-07 08:38:25 51°11.456 2°45.744 11.5 238 6 101890 95
2003-02-07 08:38:30 51°11.449 2°45.717 12.3 239 6 101890 95
2003-02-07 08:38:35 51°11.442 2°45.689 11.8 238 6 101890 95
2003-02-07 08:38:39 51°11.436 2°45.667 12.1 237 6 101880 95
2003-02-07 08:38:45 51°11.427 2°45.633 12.2 239 6 101880 95
2003-02-07 08:38:49 51°11.422 2°45.611 11.2 239 6 101880 95
2003-02-07 08:38:55 51°11.413 2°45.578 11.6 238 6 101880 95
2003-02-07 08:38:59 51°11.407 2°45.556 12.7 239 5.9 101890 95
2003-02-07 08:39:05 51°11.399 2°45.523 12.7 236 5.9 101890 95
2003-02-07 08:39:09 51°11.393 2°45.501 11.6 238 6 101900 95
2003-02-07 08:39:15 51°11.385 2°45.468 12.8 238 6 101900 95
2003-02-07 08:39:20 51°11.377 2°45.44 12 240 5.9 101900 95
2003-02-07 08:39:25 51°11.37 2°45.412 12.1 239 5.9 101900 95
2003-02-07 08:39:30 51°11.363 2°45.385 12.2 238 5.9 101890 95
2003-02-07 08:39:34 51°11.358 2°45.362 11.7 239 5.9 101890 95
2003-02-07 08:39:40 51°11.349 2°45.329 12 239 5.9 101900 95
2003-02-07 08:39:45 51°11.342 2°45.302 11.9 238 5.9 101900 95
2003-02-07 08:39:50 51°11.334 2°45.274 12.5 238 5.9 101890 95
2003-02-07 08:39:55 51°11.328 2°45.246 11.4 237 5.9 101890 95
2003-02-07 08:39:59 51°11.322 2°45.224 12.3 239 5.9 101890 95
2003-02-07 08:40:05 51°11.313 2°45.191 13.1 240 5.9 101890 95
2003-02-07 08:40:08 51°11.309 2°45.175 11.7 239 5.9 101890 95
2003-02-07 08:40:14 51°11.3 2°45.141 12.2 239 5.9 101890 95
2003-02-07 08:40:20 51°11.292 2°45.108 12.7 242 5.9 101890 95
2003-02-07 08:40:25 51°11.284 2°45.08 12.4 239 5.9 101890 95
2003-02-07 08:40:30 51°11.277 2°45.053 11.9 239 5.9 101890 95
2003-02-07 08:40:35 51°11.27 2°45.025 12.9 239 5.9 101890 95
2003-02-07 08:40:40 51°11.262 2°44.997 12.9 240 5.9 101890 95
2003-02-07 08:40:44 51°11.257 2°44.975 11.9 239 5.9 101890 95
2003-02-07 08:40:50 51°11.248 2°44.942 12.4 239 5.9 101890 95
2003-02-07 08:40:55 51°11.241 2°44.914 12.7 239 5.9 101890 95
2003-02-07 08:41:00 51°11.234 2°44.887 13 239 5.9 101890 95
2003-02-07 08:41:05 51°11.227 2°44.859 12.2 240 5.9 101890 95
2003-02-07 08:41:10 51°11.22 2°44.831 12.8 239 5.9 101890 95
2003-02-07 08:41:15 51°11.213 2°44.804 13 238 5.9 101890 95
2003-02-07 08:41:20 51°11.205 2°44.776 12.7 239 5.9 101890 95
2003-02-07 08:41:25 51°11.198 2°44.748 12.5 238 5.9 101890 95
2003-02-07 08:41:28 51°11.194 2°44.732 11.9 237 5.9 101890 95
2003-02-07 08:41:34 51°11.185 2°44.699 12.7 238 5.9 101890 95
2003-02-07 08:41:39 51°11.177 2°44.671 12.5 239 5.9 101900 95
2003-02-07 08:41:45 51°11.169 2°44.638 12.4 237 5.9 101900 95
2003-02-07 08:41:49 51°11.163 2°44.616 11.9 236 5.9 101900 95
2003-02-07 08:41:54 51°11.156 2°44.588 11.7 239 5.9 101900 95
2003-02-07 08:41:59 51°11.149 2°44.56 12.4 237 5.9 101910 95
2003-02-07 08:42:05 51°11.14 2°44.527 11.6 238 5.9 101910 95
2003-02-07 08:42:10 51°11.133 2°44.499 11.9 239 5.9 101910 95
2003-02-07 08:42:15 51°11.126 2°44.472 11.8 238 5.9 101910 95
2003-02-07 08:42:20 51°11.119 2°44.444 12.1 237 5.9 101900 95
2003-02-07 08:42:25 51°11.112 2°44.416 11.7 237 5.9 101900 95
2003-02-07 08:42:29 51°11.106 2°44.394 12.3 238 5.9 101910 95
2003-02-07 08:42:35 51°11.098 2°44.361 12.3 237 5.9 101910 95
2003-02-07 08:42:39 51°11.092 2°44.339 12 238 5.9 101900 95
2003-02-07 08:42:45 51°11.084 2°44.305 12.3 239 5.9 101900 95
2003-02-07 08:42:50 51°11.077 2°44.277 12.6 240 5.9 101900 95
2003-02-07 08:42:55 51°11.071 2°44.249 12 239 5.9 101900 95
2003-02-07 08:43:00 51°11.065 2°44.221 11.5 239 5.9 101900 95
2003-02-07 08:43:05 51°11.058 2°44.193 11.7 237 5.9 101900 95
2003-02-07 08:43:10 51°11.053 2°44.164 11.7 239 5.9 101900 95
2003-02-07 08:43:15 51°11.047 2°44.136 12.5 240 5.9 101900 95
2003-02-07 08:43:20 51°11.04 2°44.108 12.3 242 5.9 101900 95
2003-02-07 08:43:25 51°11.034 2°44.08 11.9 239 5.9 101900 95
2003-02-07 08:43:30 51°11.028 2°44.052 12.8 240 5.9 101900 95
2003-02-07 08:43:35 51°11.022 2°44.024 13.4 238 5.9 101900 95
2003-02-07 08:43:40 51°11.015 2°43.995 12.9 241 5.9 101900 95
2003-02-07 08:43:44 51°11.01 2°43.973 12.8 240 5.9 101900 95
2003-02-07 08:43:48 51°11.005 2°43.951 13.6 242 5.9 101900 95
2003-02-07 08:43:55 51°10.997 2°43.911 13.7 241 5.9 101900 95
2003-02-07 08:43:59 51°10.992 2°43.889 13.5 241 5.9 101900 95
2003-02-07 08:44:05 51°10.984 2°43.855 13.1 241 5.9 101900 95
2003-02-07 08:44:10 51°10.978 2°43.827 12.6 241 5.9 101890 95
2003-02-07 08:44:15 51°10.972 2°43.799 12.8 240 5.9 101890 95
2003-02-07 08:44:20 51°10.965 2°43.771 12.8 240 5.9 101890 95
2003-02-07 08:44:25 51°10.959 2°43.742 13.2 238 5.9 101890 95
2003-02-07 08:44:29 51°10.953 2°43.719 13.3 238 6 101890 95
2003-02-07 08:44:35 51°10.945 2°43.684 13.4 237 6 101890 95
2003-02-07 08:44:40 51°10.938 2°43.654 13 238 6 101890 95
2003-02-07 08:44:44 51°10.934 2°43.63 13.9 239 6 101890 95
2003-02-07 08:44:50 51°10.925 2°43.595 13.1 238 6 101890 95
2003-02-07 08:44:55 51°10.918 2°43.565 14.2 237 6 101890 95
2003-02-07 08:45:00 51°10.912 2°43.534 13.2 237 6 101900 95
2003-02-07 08:45:05 51°10.905 2°43.504 12.9 237 6 101900 95
2003-02-07 08:45:09 51°10.9 2°43.48 13.4 235 6 101900 95
2003-02-07 08:45:14 51°10.893 2°43.45 13.2 235 6 101900 95
2003-02-07 08:45:20 51°10.885 2°43.413 12.8 236 6 101900 95
2003-02-07 08:45:24 51°10.88 2°43.388 13.2 236 6 101900 95
2003-02-07 08:45:28 51°10.875 2°43.364 13 236 6 101910 95
2003-02-07 08:45:35 51°10.866 2°43.321 13.2 234 6 101910 95
2003-02-07 08:45:40 51°10.859 2°43.29 13.8 237 6 101910 95
2003-02-07 08:45:45 51°10.852 2°43.26 13.1 236 6 101910 95
2003-02-07 08:45:48 51°10.848 2°43.242 13.5 235 6 101910 95
2003-02-07 08:45:54 51°10.84 2°43.205 13.5 236 6 101910 95
2003-02-07 08:46:00 51°10.832 2°43.168 12.8 235 6 101910 95
2003-02-07 08:46:05 51°10.825 2°43.137 13.1 235 6 101910 95
2003-02-07 08:46:09 51°10.82 2°43.113 12.3 233 6 101910 95
2003-02-07 08:46:14 51°10.813 2°43.082 12.7 234 6 101910 95
2003-02-07 08:46:20 51°10.805 2°43.045 13.6 231 6.1 101910 95
2003-02-07 08:46:24 51°10.8 2°43.021 13.1 232 6.1 101910 95
2003-02-07 08:46:30 51°10.792 2°42.984 12.1 233 6 101910 95
2003-02-07 08:46:35 51°10.785 2°42.953 12.6 233 6 101910 95
2003-02-07 08:46:40 51°10.778 2°42.922 12.3 234 6.1 101910 95
2003-02-07 08:46:44 51°10.773 2°42.898 11.9 233 6.1 101910 95
2003-02-07 08:46:50 51°10.765 2°42.861 12.1 234 6.1 101910 95
2003-02-07 08:46:55 51°10.759 2°42.83 11.8 234 6.1 101910 95
2003-02-07 08:46:59 51°10.754 2°42.805 12.3 235 6.1 101920 95
2003-02-07 08:47:04 51°10.748 2°42.774 12.6 234 6.1 101920 95
2003-02-07 08:47:10 51°10.741 2°42.737 12.8 234 6.1 101910 95
2003-02-07 08:47:15 51°10.735 2°42.706 12 234 6.1 101910 95
2003-02-07 08:47:19 51°10.73 2°42.681 11.9 236 6.1 101920 95
2003-02-07 08:47:25 51°10.722 2°42.644 11.9 234 6.1 101920 95
2003-02-07 08:47:29 51°10.718 2°42.619 12.4 236 6.1 101910 95
2003-02-07 08:47:34 51°10.712 2°42.588 11.3 235 6.1 101910 95
2003-02-07 08:47:40 51°10.704 2°42.551 11.5 235 6.1 101910 95
2003-02-07 08:47:44 51°10.699 2°42.526 12.5 236 6.1 101910 95
2003-02-07 08:47:49 51°10.693 2°42.495 12.3 236 6.1 101910 95
2003-02-07 08:47:55 51°10.686 2°42.457 11.5 235 6.1 101910 95
2003-02-07 08:47:58 51°10.683 2°42.439 12.1 237 6.1 101910 95
2003-02-07 08:48:05 51°10.674 2°42.395 11.6 239 6.1 101910 95
2003-02-07 08:48:09 51°10.669 2°42.371 11.8 235 6 101910 95
2003-02-07 08:48:14 51°10.663 2°42.339 12.3 238 6 101910 95
2003-02-07 08:48:20 51°10.656 2°42.302 11.9 237 6 101910 95
2003-02-07 08:48:25 51°10.65 2°42.27 11.3 237 6 101910 95
2003-02-07 08:48:30 51°10.644 2°42.24 12.2 239 6 101910 95
2003-02-07 08:48:34 51°10.638 2°42.215 13.4 240 6 101910 95
2003-02-07 08:48:39 51°10.633 2°42.184 12.3 238 6 101910 95
2003-02-07 08:48:46 51°10.624 2°42.14 13.3 238 6 101910 95
2003-02-07 08:48:49 51°10.62 2°42.121 12.2 238 6 101910 95
2003-02-07 08:48:52 51°10.617 2°42.102 12 238 6 101910 95
2003-02-07 08:49:01 51°10.606 2°42.047 12.7 238 6 101910 95
2003-02-07 08:49:06 51°10.599 2°42.016 12.3 239 6 101910 95
2003-02-07 08:49:10 51°10.595 2°41.991 13.4 239 6 101910 95
2003-02-07 08:49:16 51°10.587 2°41.953 13.2 237 6 101910 95
2003-02-07 08:49:20 51°10.582 2°41.929 12.1 238 6 101910 95
2003-02-07 08:49:26 51°10.575 2°41.891 13.1 239 6 101910 95
2003-02-07 08:49:30 51°10.57 2°41.867 13 239 6 101900 95
2003-02-07 08:49:35 51°10.564 2°41.836 13 239 6 101900 95
2003-02-07 08:49:40 51°10.558 2°41.805 13.1 240 6 101900 95
2003-02-07 08:49:46 51°10.551 2°41.768 12.7 239 6 101900 95
2003-02-07 08:49:50 51°10.546 2°41.743 12.2 239 6 101900 95
2003-02-07 08:49:56 51°10.539 2°41.706 11.9 241 6 101900 95
2003-02-07 08:50:00 51°10.534 2°41.681 13 239 6 101900 95
2003-02-07 08:50:06 51°10.527 2°41.643 12.6 239 6 101900 95
2003-02-07 08:50:07 51°10.525 2°41.637 13.2 241 6 101900 95
2003-02-07 08:50:16 51°10.515 2°41.581 13.2 240 6 101900 95
2003-02-07 08:50:20 51°10.51 2°41.556 13.4 240 6 101890 95
2003-02-07 08:50:25 51°10.504 2°41.525 13.5 241 6 101890 95
2003-02-07 08:50:28 51°10.5 2°41.507 12.9 239 6 101900 95
2003-02-07 08:50:36 51°10.491 2°41.457 12.6 241 6 101900 95
2003-02-07 08:50:40 51°10.486 2°41.432 13.9 240 6 101890 95
2003-02-07 08:50:46 51°10.479 2°41.394 12.6 241 6 101890 95
2003-02-07 08:50:50 51°10.474 2°41.369 13.1 242 6 101900 95
2003-02-07 08:50:56 51°10.467 2°41.332 12.2 240 6 101900 95
2003-02-07 08:51:00 51°10.462 2°41.307 13.4 240 6 101890 95
2003-02-07 08:51:06 51°10.455 2°41.27 12.4 240 6 101890 95
2003-02-07 08:51:10 51°10.45 2°41.245 13.6 240 6 101900 95
2003-02-07 08:51:16 51°10.443 2°41.207 13.6 240 6 101900 95
2003-02-07 08:51:20 51°10.439 2°41.182 14.1 238 6 101900 95
2003-02-07 08:51:26 51°10.431 2°41.145 12.5 241 6 101900 95
2003-02-07 08:51:30 51°10.427 2°41.12 13.1 240 6 101890 95
2003-02-07 08:51:35 51°10.421 2°41.089 12.8 238 6 101890 95
2003-02-07 08:51:40 51°10.415 2°41.057 13.1 240 6 101900 95
2003-02-07 08:51:46 51°10.407 2°41.02 12.8 240 6 101900 95
2003-02-07 08:51:50 51°10.403 2°40.995 12.9 240 6 101890 95
2003-02-07 08:51:55 51°10.396 2°40.964 13.1 240 6 101890 95
2003-02-07 08:51:59 51°10.392 2°40.938 13.8 241 6 101900 95
2003-02-07 08:52:06 51°10.383 2°40.895 12.2 239 6 101900 95
2003-02-07 08:52:10 51°10.378 2°40.87 12.3 240 6 101890 95
2003-02-07 08:52:15 51°10.372 2°40.839 13.9 240 6 101890 95
2003-02-07 08:52:20 51°10.366 2°40.807 13.8 240 6 101900 95
2003-02-07 08:52:26 51°10.359 2°40.77 13 239 6 101900 95
2003-02-07 08:52:30 51°10.354 2°40.745 13.6 240 6 101900 95
2003-02-07 08:52:36 51°10.347 2°40.707 12.4 240 6 101900 95
2003-02-07 08:52:37 51°10.346 2°40.701 13.9 238 6 101900 95
2003-02-07 08:52:46 51°10.335 2°40.644 13.2 238 6 101900 95
2003-02-07 08:52:50 51°10.33 2°40.62 13.4 240 6 101910 95
2003-02-07 08:52:56 51°10.323 2°40.582 13.3 239 6 101910 95
2003-02-07 08:52:58 51°10.32 2°40.569 12.3 240 6 101900 95
2003-02-07 08:53:05 51°10.312 2°40.526 12.7 239 6 101900 95
2003-02-07 08:53:10 51°10.306 2°40.494 13.5 240 6 101890 95
2003-02-07 08:53:16 51°10.298 2°40.457 12.8 239 6 101890 95
2003-02-07 08:53:20 51°10.293 2°40.432 13.3 239 6 101900 95
2003-02-07 08:53:26 51°10.286 2°40.394 13.1 241 6 101900 95
2003-02-07 08:53:30 51°10.281 2°40.369 12.8 239 6 101890 95
2003-02-07 08:53:35 51°10.275 2°40.338 13.9 238 6 101890 95
2003-02-07 08:53:40 51°10.269 2°40.306 13.4 239 6 101900 95
2003-02-07 08:53:46 51°10.262 2°40.269 12.7 240 6 101900 95
2003-02-07 08:53:50 51°10.257 2°40.244 12.4 241 6 101910 95
2003-02-07 08:53:56 51°10.25 2°40.206 13.5 239 6 101910 95
2003-02-07 08:54:00 51°10.245 2°40.181 12.8 240 6 101900 95
2003-02-07 08:54:06 51°10.238 2°40.143 13.7 241 6 101900 95
2003-02-07 08:54:10 51°10.233 2°40.118 13.9 240 6 101900 95
2003-02-07 08:54:16 51°10.226 2°40.08 13.9 239 6 101900 95
2003-02-07 08:54:20 51°10.221 2°40.055 13 239 6 101900 95
2003-02-07 08:54:26 51°10.214 2°40.017 13.7 240 6 101900 95
2003-02-07 08:54:30 51°10.209 2°39.992 12.7 238 6 101900 95
2003-02-07 08:54:35 51°10.203 2°39.961 13.9 240 6 101900 95
2003-02-07 08:54:40 51°10.197 2°39.93 13.2 240 6 101900 95
2003-02-07 08:54:46 51°10.19 2°39.892 13.7 241 6 101900 95
2003-02-07 08:54:50 51°10.185 2°39.867 13.7 241 6 101910 95
2003-02-07 08:54:55 51°10.179 2°39.836 14 241 6 101910 95
2003-02-07 08:54:59 51°10.174 2°39.811 13.3 240 6 101900 95
2003-02-07 08:55:06 51°10.166 2°39.767 13.7 241 6 101900 95
2003-02-07 08:55:10 51°10.161 2°39.742 13.4 239 6.1 101890 95
2003-02-07 08:55:16 51°10.154 2°39.704 12.9 240 6.1 101890 95
2003-02-07 08:55:23 51°10.146 2°39.66 13.9 243 6.1 101900 95
2003-02-07 08:55:30 51°10.138 2°39.617 13.6 241 6.1 101900 95
2003-02-07 08:55:36 51°10.131 2°39.579 13.5 240 6.1 101900 95
2003-02-07 08:55:40 51°10.126 2°39.554 13.2 239 6.1 101890 95
2003-02-07 08:55:46 51°10.119 2°39.516 13.2 239 6.1 101890 95
2003-02-07 08:55:50 51°10.114 2°39.491 13.1 240 6.1 101890 95
2003-02-07 08:55:52 51°10.111 2°39.479 12.7 242 6.1 101890 95
2003-02-07 08:56:01 51°10.101 2°39.422 13.5 240 6.1 101890 95
2003-02-07 08:56:07 51°10.094 2°39.385 13.3 241 6.1 101890 95
2003-02-07 08:56:12 51°10.088 2°39.353 13 239 6.1 101890 95
2003-02-07 08:56:16 51°10.083 2°39.328 13.9 239 6.1 101890 95
2003-02-07 08:56:23 51°10.074 2°39.285 13.2 240 6.1 101900 95
2003-02-07 08:56:30 51°10.065 2°39.24 12.9 241 6.1 101890 95
2003-02-07 08:56:36 51°10.058 2°39.203 12.8 241 6.1 101890 95
2003-02-07 08:56:40 51°10.053 2°39.178 13.9 242 6.1 101900 95
2003-02-07 08:56:46 51°10.046 2°39.14 13.7 241 6.1 101900 95
2003-02-07 08:56:50 51°10.042 2°39.114 12.9 241 6.1 101900 95
2003-02-07 08:57:01 51°10.03 2°39.045 13.1 240 6.1 101900 95
2003-02-07 08:57:07 51°10.023 2°39.007 13.6 241 6.1 101900 95
2003-02-07 08:57:12 51°10.018 2°38.975 13.9 241 6.1 101900 95
2003-02-07 08:57:15 51°10.015 2°38.956 13.7 242 6.1 101900 95
2003-02-07 08:57:21 51°10.008 2°38.918 12.8 243 6.1 101900 95
2003-02-07 08:57:26 51°10.003 2°38.886 12.3 241 6.1 101900 95
2003-02-07 08:57:32 51°9.997 2°38.848 13 244 6.1 101900 95
2003-02-07 08:57:37 51°9.991 2°38.816 13.3 242 6.1 101900 95
2003-02-07 08:57:41 51°9.987 2°38.79 12.6 243 6.1 101890 95
2003-02-07 08:57:47 51°9.981 2°38.753 13.3 242 6.1 101890 95
2003-02-07 08:57:52 51°9.975 2°38.721 12.7 241 6.2 101900 95
2003-02-07 08:58:01 51°9.966 2°38.664 13.3 243 6.2 101900 95
2003-02-07 08:58:07 51°9.959 2°38.625 12.4 243 6.2 101900 95
2003-02-07 08:58:12 51°9.954 2°38.593 12.8 241 6.2 101900 95
2003-02-07 08:58:15 51°9.95 2°38.574 13.8 242 6.2 101900 95
2003-02-07 08:58:22 51°9.942 2°38.53 12.9 244 6.2 101900 95
2003-02-07 08:58:26 51°9.938 2°38.504 13.2 243 6.2 101900 95
2003-02-07 08:58:32 51°9.932 2°38.466 13.2 243 6.2 101900 95
2003-02-07 08:58:37 51°9.926 2°38.434 12.8 244 6.2 101900 95
2003-02-07 08:58:42 51°9.921 2°38.402 12.8 242 6.2 101900 95
2003-02-07 08:58:46 51°9.916 2°38.377 12.5 242 6.2 101900 95
2003-02-07 08:58:52 51°9.91 2°38.338 12.1 244 6.2 101900 95
2003-02-07 08:58:57 51°9.904 2°38.306 13.1 243 6.2 101900 95
2003-02-07 08:59:02 51°9.899 2°38.274 12.8 243 6.2 101900 95
2003-02-07 08:59:06 51°9.894 2°38.249 12.2 244 6.2 101900 95
2003-02-07 08:59:12 51°9.888 2°38.211 12.3 242 6.2 101900 95
2003-02-07 08:59:15 51°9.885 2°38.193 11.5 244 6.2 101900 95
2003-02-07 08:59:22 51°9.879 2°38.153 11.6 244 6.2 101910 95
2003-02-07 08:59:27 51°9.874 2°38.127 10.9 244 6.2 101910 95
2003-02-07 08:59:32 51°9.87 2°38.104 9.9 243 6.2 101910 95
2003-02-07 08:59:36 51°9.866 2°38.087 9.2 241 6.2 101910 95
2003-02-07 08:59:42 51°9.86 2°38.064 9.5 237 6.2 101910 95
2003-02-07 08:59:46 51°9.855 2°38.051 8.8 234 6.2 101910 95
2003-02-07 08:59:52 51°9.847 2°38.033 8.3 235 6.2 101910 95
2003-02-07 08:59:56 51°9.841 2°38.023 8.4 228 6.2 101910 95
2003-02-07 09:00:02 51°9.832 2°38.011 7.8 225 6.3 101930 95
2003-02-07 09:00:06 51°9.826 2°38.004 7.5 216 6.3 101930 95
2003-02-07 09:00:10 51°9.82 2°37.998 8.1 213 6.3 101930 95
2003-02-07 09:00:16 51°9.811 2°37.991 7.3 214 6.3 101930 95
2003-02-07 09:00:22 51°9.802 2°37.984 7.7 216 6.3 101930 95
2003-02-07 09:00:27 51°9.794 2°37.979 6.9 219 6.3 101930 95
2003-02-07 09:00:31 51°9.788 2°37.973 7.4 222 6.3 101940 95
2003-02-07 09:00:35 51°9.783 2°37.968 7.6 227 6.3 101940 95
2003-02-07 09:00:42 51°9.774 2°37.956 7.2 229 6.3 101930 95
2003-02-07 09:00:46 51°9.769 2°37.949 7.3 235 6.3 101930 95
2003-02-07 09:00:52 51°9.763 2°37.937 7.1 235 6.3 101940 95
2003-02-07 09:00:56 51°9.759 2°37.929 7.1 243 6.3 101940 95
2003-02-07 09:01:01 51°9.755 2°37.918 6.8 244 6.3 101940 95
2003-02-07 09:01:06 51°9.752 2°37.907 6.7 250 6.3 101940 95
2003-02-07 09:01:12 51°9.749 2°37.894 6.6 252 6.3 101940 95
2003-02-07 09:01:15 51°9.748 2°37.887 6.5 259 6.3 101940 95
2003-02-07 09:01:20 51°9.746 2°37.875 6.2 264 6.3 101940 95
2003-02-07 09:01:26 51°9.745 2°37.862 6.4 269 6.3 101940 95
2003-02-07 09:01:31 51°9.745 2°37.85 6.3 269 6.3 101940 95
2003-02-07 09:01:37 51°9.745 2°37.837 6.3 279 6.3 101940 95
2003-02-07 09:01:40 51°9.746 2°37.83 6.6 281 6.3 101940 95
2003-02-07 09:01:46 51°9.748 2°37.817 6.1 282 6.3 101940 95
2003-02-07 09:01:52 51°9.75 2°37.805 5.6 288 6.3 101940 95
2003-02-07 09:01:56 51°9.752 2°37.798 5.5 296 6.3 101940 95
2003-02-07 09:02:01 51°9.755 2°37.789 6 300 6.3 101940 95
2003-02-07 09:02:06 51°9.759 2°37.78 5.1 302 6.3 101940 95
2003-02-07 09:02:12 51°9.764 2°37.771 4 305 6.3 101950 95
2003-02-07 09:02:14 51°9.765 2°37.768 2.4 321 6.3 101950 95
2003-02-07 09:02:21 51°9.772 2°37.76 1.6 321 6.3 101950 95
2003-02-07 09:02:26 51°9.776 2°37.755 1.3 338 6.3 101950 95
2003-02-07 09:02:32 51°9.782 2°37.75 1.9 333 6.3 101950 95
2003-02-07 09:02:35 51°9.785 2°37.748 1.2 339 6.3 101950 95
2003-02-07 09:02:42 51°9.791 2°37.746 2.6 349 6.3 101950 95
2003-02-07 09:02:47 51°9.796 2°37.745 2.2 9 6.3 101950 95
2003-02-07 09:02:52 51°9.8 2°37.745 2.4 13 6.3 101950 95
2003-02-07 09:02:57 51°9.804 2°37.746 2.4 15 6.3 101950 95
2003-02-07 09:03:01 51°9.808 2°37.747 2.6 23 6.3 101950 95
2003-02-07 09:03:07 51°9.812 2°37.75 2.3 40 6.3 101950 95
2003-02-07 09:03:11 51°9.815 2°37.753 2.7 59 6.3 101950 95
2003-02-07 09:03:17 51°9.819 2°37.757 1.1 133 6.3 101950 95
2003-02-07 09:03:22 51°9.821 2°37.762 2.1 79 6.3 101950 95
2003-02-07 09:03:27 51°9.823 2°37.767 2 67 6.3 101950 95
2003-02-07 09:03:32 51°9.824 2°37.772 2 92 6.3 101960 95
2003-02-07 09:03:35 51°9.825 2°37.775 2.8 99 6.3 101960 95
2003-02-07 09:03:41 51°9.826 2°37.782 2.7 100 6.3 101960 95
2003-02-07 09:03:46 51°9.826 2°37.789 2.6 108 6.3 101960 95
2003-02-07 09:03:51 51°9.827 2°37.795 2.4 111 6.3 101960 95
2003-02-07 09:03:56 51°9.827 2°37.802 2.5 120 6.3 101960 95
2003-02-07 09:04:01 51°9.827 2°37.809 2.5 109 6.3 101960 95
2003-02-07 09:04:04 51°9.828 2°37.813 2.3 114 6.3 101960 95
2003-02-07 09:04:12 51°9.829 2°37.825 2.2 108 6.3 101960 95
2003-02-07 09:04:17 51°9.83 2°37.832 2.3 98 6.3 101960 95
2003-02-07 09:04:22 51°9.831 2°37.84 2.1 98 6.3 101960 95
2003-02-07 09:04:26 51°9.833 2°37.845 1.8 107 6.3 101960 95
2003-02-07 09:04:31 51°9.835 2°37.853 1.6 109 6.3 101960 95
2003-02-07 09:04:37 51°9.837 2°37.862 1.8 89 6.3 101960 95
2003-02-07 09:04:42 51°9.84 2°37.87 1.9 97 6.3 101960 95
2003-02-07 09:04:46 51°9.841 2°37.876 2.1 98 6.3 101960 95
2003-02-07 09:04:51 51°9.844 2°37.884 1.6 101 6.3 101960 95
2003-02-07 09:04:56 51°9.846 2°37.893 1.7 89 6.3 101960 95
2003-02-07 09:05:02 51°9.848 2°37.902 1.9 98 6.3 101960 95
2003-02-07 09:05:06 51°9.85 2°37.909 1.9 112 6.3 101960 95
2003-02-07 09:05:12 51°9.852 2°37.918 2 108 6.3 101960 95
2003-02-07 09:05:16 51°9.854 2°37.924 2.2 109 6.3 101960 95
2003-02-07 09:05:21 51°9.855 2°37.932 2.7 102 6.3 101960 95
2003-02-07 09:05:25 51°9.857 2°37.938 2.3 98 6.3 101960 95
2003-02-07 09:05:31 51°9.858 2°37.947 2.3 106 6.3 101960 95
2003-02-07 09:05:36 51°9.86 2°37.955 2.4 104 6.3 101960 95
2003-02-07 09:05:41 51°9.861 2°37.962 2.2 103 6.3 101950 95
2003-02-07 09:05:44 51°9.862 2°37.966 2.1 109 6.3 101950 95
2003-02-07 09:05:51 51°9.864 2°37.976 1.8 105 6.3 101960 95
2003-02-07 09:05:56 51°9.866 2°37.982 2 89 6.3 101960 95
2003-02-07 09:06:00 51°9.867 2°37.986 2.2 92 6.3 101960 95
2003-02-07 09:06:07 51°9.868 2°37.993 2.1 79 6.3 101960 95
2003-02-07 09:06:11 51°9.869 2°37.995 2.1 85 6.3 101960 95
2003-02-07 09:06:16 51°9.87 2°37.998 2.5 86 6.3 101960 95
2003-02-07 09:06:22 51°9.871 2°38.001 3.4 83 6.3 101960 95
2003-02-07 09:06:26 51°9.871 2°38.004 2.9 86 6.3 101960 95
2003-02-07 09:06:32 51°9.872 2°38.007 2.9 82 6.3 101960 95
2003-02-07 09:06:36 51°9.873 2°38.009 3 89 6.3 101960 95
2003-02-07 09:06:42 51°9.873 2°38.012 2.9 92 6.3 101960 95
2003-02-07 09:06:46 51°9.874 2°38.014 2.6 87 6.3 101960 95
2003-02-07 09:06:52 51°9.874 2°38.016 2.9 91 6.3 101960 95
2003-02-07 09:06:56 51°9.874 2°38.018 3 80 6.3 101960 95
2003-02-07 09:07:02 51°9.875 2°38.021 3.3 82 6.3 101960 95
2003-02-07 09:07:06 51°9.875 2°38.023 2.9 84 6.3 101960 95
2003-02-07 09:07:12 51°9.876 2°38.025 3.2 91 6.2 101960 95
2003-02-07 09:07:16 51°9.876 2°38.027 3.3 92 6.2 101960 95
2003-02-07 09:07:22 51°9.876 2°38.029 3.3 86 6.3 101960 95
2003-02-07 09:07:26 51°9.876 2°38.031 3.6 86 6.3 101960 95
2003-02-07 09:07:32 51°9.877 2°38.033 3.8 101 6.2 101960 95
2003-02-07 09:07:36 51°9.877 2°38.034 3.9 85 6.2 101960 95
2003-02-07 09:07:41 51°9.877 2°38.036 3.5 92 6.3 101960 95
2003-02-07 09:07:45 51°9.877 2°38.037 3.3 81 6.3 101960 95
2003-02-07 09:07:52 51°9.878 2°38.04 3.2 90 6.3 101960 95
2003-02-07 09:07:56 51°9.878 2°38.041 3.5 87 6.3 101960 95
2003-02-07 09:08:01 51°9.878 2°38.043 3.2 85 6.3 101960 95
2003-02-07 09:08:04 51°9.878 2°38.044 3.5 84 6.3 101960 95
2003-02-07 09:08:11 51°9.878 2°38.046 3.6 91 6.2 101960 95
2003-02-07 09:08:16 51°9.878 2°38.047 3.6 87 6.2 101960 95
2003-02-07 09:08:21 51°9.878 2°38.049 3.9 85 6.3 101960 95
2003-02-07 09:08:27 51°9.878 2°38.051 3.4 82 6.3 101960 95
2003-02-07 09:08:30 51°9.878 2°38.052 3.3 89 6.2 101960 95
2003-02-07 09:08:36 51°9.878 2°38.053 3.7 82 6.2 101960 95
2003-02-07 09:08:42 51°9.878 2°38.055 4.1 84 6.3 101960 95
2003-02-07 09:08:46 51°9.878 2°38.056 4.2 82 6.3 101960 95
2003-02-07 09:08:51 51°9.878 2°38.058 3.4 80 6.2 101960 95
2003-02-07 09:08:57 51°9.878 2°38.06 4.4 83 6.2 101960 95
2003-02-07 09:09:01 51°9.878 2°38.061 4.6 83 6.3 101960 95
2003-02-07 09:09:06 51°9.878 2°38.062 3.9 82 6.3 101960 95
2003-02-07 09:09:12 51°9.878 2°38.063 3.7 86 6.2 101960 95
2003-02-07 09:09:17 51°9.878 2°38.064 4 90 6.2 101960 95
2003-02-07 09:09:22 51°9.878 2°38.064 4.2 86 6.2 101960 95
2003-02-07 09:09:26 51°9.878 2°38.065 5.1 85 6.2 101960 95
2003-02-07 09:09:32 51°9.878 2°38.066 4.9 84 6.2 101960 95
2003-02-07 09:09:37 51°9.878 2°38.067 4.2 85 6.2 101960 95
2003-02-07 09:09:41 51°9.878 2°38.068 4.6 82 6.2 101960 95
2003-02-07 09:09:46 51°9.878 2°38.069 4.2 84 6.2 101960 95
2003-02-07 09:09:52 51°9.878 2°38.07 3.9 87 6.2 101960 95
2003-02-07 09:09:56 51°9.878 2°38.071 4.2 86 6.2 101960 95
2003-02-07 09:10:01 51°9.878 2°38.072 4.2 87 6.3 101960 95
2003-02-07 09:10:06 51°9.878 2°38.072 4.9 90 6.3 101960 95
2003-02-07 09:10:12 51°9.878 2°38.073 4.4 87 6.2 101960 95
2003-02-07 09:10:17 51°9.878 2°38.074 4.7 85 6.2 101960 95
2003-02-07 09:10:21 51°9.878 2°38.075 4.7 86 6.3 101960 95
2003-02-07 09:10:27 51°9.878 2°38.076 4.5 89 6.3 101960 95
2003-02-07 09:10:32 51°9.877 2°38.076 4.5 88 6.3 101960 95
2003-02-07 09:10:37 51°9.877 2°38.077 5 87 6.3 101960 95
2003-02-07 09:10:42 51°9.877 2°38.078 4.2 90 6.3 101960 95
2003-02-07 09:10:46 51°9.877 2°38.078 4.5 94 6.3 101960 95
2003-02-07 09:10:52 51°9.877 2°38.079 5 87 6.3 101960 95
2003-02-07 09:10:56 51°9.877 2°38.079 4.6 95 6.3 101960 95
2003-02-07 09:11:01 51°9.876 2°38.08 4.8 90 6.3 101960 95
2003-02-07 09:11:06 51°9.876 2°38.08 4.8 89 6.3 101960 95
2003-02-07 09:11:12 51°9.876 2°38.081 5.1 90 6.3 101960 95
2003-02-07 09:11:15 51°9.876 2°38.081 4 93 6.3 101960 95
2003-02-07 09:11:22 51°9.875 2°38.082 4.4 92 6.3 101960 95
2003-02-07 09:11:27 51°9.875 2°38.083 5.7 96 6.3 101960 95
2003-02-07 09:11:32 51°9.875 2°38.083 5 95 6.3 101960 95
2003-02-07 09:11:37 51°9.874 2°38.084 4.2 99 6.3 101960 95
2003-02-07 09:11:42 51°9.874 2°38.084 4.9 98 6.3 101960 95
2003-02-07 09:11:46 51°9.873 2°38.085 4.9 96 6.3 101960 95
2003-02-07 09:11:52 51°9.873 2°38.085 4.5 100 6.3 101960 95
2003-02-07 09:11:57 51°9.873 2°38.085 4.4 97 6.3 101960 95
2003-02-07 09:12:01 51°9.872 2°38.086 4.9 94 6.3 101960 95
2003-02-07 09:12:06 51°9.872 2°38.086 3.3 91 6.3 101960 95
2003-02-07 09:12:12 51°9.871 2°38.087 4.5 93 6.3 101960 95
2003-02-07 09:12:16 51°9.871 2°38.087 4.3 99 6.3 101960 95
2003-02-07 09:12:21 51°9.87 2°38.087 3.7 90 6.3 101960 95
2003-02-07 09:12:26 51°9.87 2°38.087 5.4 102 6.3 101960 95
2003-02-07 09:12:32 51°9.87 2°38.087 4.7 95 6.3 101960 95
2003-02-07 09:12:37 51°9.869 2°38.088 4.3 102 6.3 101960 95
2003-02-07 09:12:40 51°9.869 2°38.088 4.6 96 6.3 101960 95
2003-02-07 09:12:46 51°9.869 2°38.088 4.7 101 6.3 101960 95
2003-02-07 09:12:52 51°9.868 2°38.089 4.2 99 6.3 101960 95
2003-02-07 09:12:56 51°9.868 2°38.089 4.7 101 6.3 101960 95
2003-02-07 09:13:01 51°9.868 2°38.089 4.7 105 6.3 101960 95
2003-02-07 09:13:07 51°9.867 2°38.09 4.1 108 6.3 101960 95
2003-02-07 09:13:12 51°9.867 2°38.09 4.4 102 6.3 101960 95
2003-02-07 09:13:16 51°9.867 2°38.09 5.1 107 6.3 101960 95
2003-02-07 09:13:21 51°9.866 2°38.09 5.2 102 6.3 101960 95
2003-02-07 09:13:27 51°9.866 2°38.09 4.8 108 6.3 101960 95
2003-02-07 09:13:30 51°9.866 2°38.09 5.4 103 6.3 101960 95
2003-02-07 09:13:36 51°9.865 2°38.09 5.1 105 6.3 101960 95
2003-02-07 09:13:41 51°9.864 2°38.09 4.3 104 6.3 101950 95
2003-02-07 09:13:46 51°9.864 2°38.09 4.9 104 6.3 101950 95
2003-02-07 09:13:51 51°9.863 2°38.09 4.5 109 6.3 101960 95
2003-02-07 09:13:57 51°9.863 2°38.09 5 111 6.3 101960 95
2003-02-07 09:14:01 51°9.862 2°38.09 5.4 109 6.3 101960 95
2003-02-07 09:14:06 51°9.862 2°38.09 4.9 113 6.3 101960 95
2003-02-07 09:14:12 51°9.861 2°38.09 4.1 111 6.3 101960 95
2003-02-07 09:14:15 51°9.861 2°38.089 4.9 109 6.3 101960 95
2003-02-07 09:14:22 51°9.86 2°38.089 4.7 115 6.3 101960 95
2003-02-07 09:14:26 51°9.859 2°38.089 5.2 116 6.3 101960 95
2003-02-07 09:14:32 51°9.858 2°38.089 4.7 116 6.3 101960 95
2003-02-07 09:14:36 51°9.858 2°38.088 4.6 116 6.3 101960 95
2003-02-07 09:14:41 51°9.857 2°38.088 4.5 115 6.3 101960 95
2003-02-07 09:14:46 51°9.856 2°38.087 5.3 118 6.3 101960 95
2003-02-07 09:14:52 51°9.856 2°38.087 5 117 6.3 101960 95